Weather History for Marathon, FL

Change the Weather History Date:

Tuesday, July 16, 2013

  Actual Average Record
Temperature  
Mean Temperature 82 °F 85 °F  
Max Temperature 88 °F 91 °F 94 °F (2014)
Min Temperature 76 °F 79 °F 75 °F (2012)
Degree Days  
Heating Degree Days 0 0  
Month to date heating degree days 0 0  
Since 1 June heating degree days 0 0  
Since 1 July heating degree days 0 0  
Cooling Degree Days 17 20  
Month to date cooling degree days 317 320  
Year to date cooling degree days 2763 2457  
Since 1 June cooling degree days 933 914  
Growing Degree Days 32 (Base 50)    
Moisture  
Dew Point 71 °F    
Average Humidity 69    
Maximum Humidity 79    
Minimum Humidity 59    
Precipitation  
Precipitation 0.41 in 0.13 in 0.41 in (2013)
Month to date precipitation 3.30 2.06  
Year to date precipitation 32.31 19.61  
Snow  
Snow 0.00 in - - ()
Month to date snowfall 0.0  
Since 1 June snowfall 0.0  
Since 1 July snowfall 0.0  
Snow Depth 0.00 in    
Sea Level Pressure  
Sea Level Pressure 30.05 in    
Wind  
Wind Speed 10 mph (East)    
Max Wind Speed 24 mph    
Max Gust Speed 31 mph    
Visibility 8 miles    
Events Rain , Thunderstorm    
T = Trace of Precipitation, MM = Missing Value Source: NWS Daily Summary

Daily Weather History Graph

Daily Weather History Graph

Search for Another Location

Airport:

Trip Planner

Search our weather history database for the weather conditions in past years. The results will help you decide how hot, cold, wet, or windy it might be!

Date:

Astronomy

Jul. 16, 2013 Rise Set
Actual Time 6:44 AM EDT 8:15 PM EDT
Civil Twilight 6:19 AM EDT 8:40 PM EDT
Nautical Twilight 5:49 AM EDT 9:10 PM EDT
Astronomical Twilight 5:18 AM EDT 9:42 PM EDT
Moon 2:09 PM EDT (7/16) 12:55 AM EDT (7/16)
Length of Visible Light 14h 20m
Length of Day
13h 30m
First Quarter, 56% of the Moon is Illuminated
Jul 16
First Quarter
Jul 22
Full
Jul 29
Last Quarter
Aug 6
New
Aug 14
First Quarter

Hourly Weather History & Observations

Time (EDT) Temp. Heat Index Dew Point Humidity Pressure Visibility Wind Dir Wind Speed Gust Speed Precip Events Conditions
12:53 AM 84.0 °F 89.0 °F 71.1 °F 65% 30.05 in 10.0 mi East 6.9 mph 16.1 mph N/A   Partly Cloudy
1:53 AM 82.0 °F 85.5 °F 69.1 °F 65% 30.04 in 10.0 mi East 6.9 mph - N/A   Clear
2:53 AM 82.0 °F 86.7 °F 72.0 °F 71% 30.02 in 10.0 mi East 6.9 mph - N/A   Clear
3:53 AM 82.9 °F 87.0 °F 70.0 °F 65% 30.01 in 10.0 mi East 5.8 mph - N/A   Clear
4:53 AM 82.9 °F 87.5 °F 71.1 °F 67% 30.01 in 10.0 mi ENE 8.1 mph - N/A   Scattered Clouds
5:53 AM 78.1 °F - 72.0 °F 81% 30.01 in 10.0 mi SE 4.6 mph - 0.06 in   Overcast
6:53 AM 81.0 °F 85.2 °F 72.0 °F 74% 30.01 in 10.0 mi ENE 4.6 mph - N/A   Partly Cloudy
7:53 AM 82.9 °F 88.0 °F 72.0 °F 69% 30.03 in 10.0 mi East 10.4 mph - N/A   Mostly Cloudy
8:15 AM 82.4 °F 88.2 °F 73.4 °F 74% 30.04 in 10.0 mi ENE 5.8 mph - 0.01 in   Mostly Cloudy
8:53 AM 78.1 °F - 71.1 °F 79% 30.04 in 2.0 mi NE 20.7 mph 28.8 mph 0.05 in Rain Heavy Rain
9:00 AM 77.0 °F - 71.6 °F 83% 30.06 in 1.8 mi ENE 23.0 mph 28.8 mph 0.02 in Rain Heavy Rain
9:17 AM 77.0 °F - 71.6 °F 83% 30.05 in 1.2 mi ENE 13.8 mph 24.2 mph 0.15 in Rain Heavy Rain
9:25 AM 78.8 °F - 71.6 °F 78% 30.05 in 3.0 mi East 13.8 mph 20.7 mph 0.17 in Rain Rain
9:53 AM 77.0 °F - 71.1 °F 82% 30.05 in 6.0 mi SE 10.4 mph 25.3 mph 0.18 in Rain , Thunderstorm Light Rain
10:09 AM 78.8 °F - 73.4 °F 83% 30.05 in 7.0 mi SSE 6.9 mph - 0.01 in Rain Light Rain
10:53 AM 84.0 °F 89.0 °F 71.1 °F 65% 30.05 in 10.0 mi ESE 4.6 mph - 0.01 in   Clear
11:53 AM 87.1 °F 93.6 °F 72.0 °F 61% 30.07 in 10.0 mi ESE 8.1 mph - N/A   Clear
12:42 PM 86.0 °F 93.4 °F 73.4 °F 66% 30.08 in 10.0 mi ENE 9.2 mph - N/A   Mostly Cloudy
12:53 PM 86.0 °F 91.5 °F 71.1 °F 61% 30.08 in 10.0 mi NE 15.0 mph - N/A   Mostly Cloudy
1:28 PM 84.2 °F 89.6 °F 71.6 °F 66% 30.07 in 10.0 mi ENE 17.3 mph - N/A   Mostly Cloudy
1:50 PM 82.4 °F 88.2 °F 73.4 °F 74% 30.07 in 10.0 mi ENE 19.6 mph 26.5 mph N/A   Overcast
1:53 PM 84.0 °F 89.6 °F 72.0 °F 67% 30.06 in 10.0 mi ENE 19.6 mph 27.6 mph N/A   Overcast
2:53 PM 84.0 °F 89.6 °F 72.0 °F 67% 30.04 in 10.0 mi East 12.7 mph 19.6 mph 0.00 in   Partly Cloudy
3:53 PM 84.9 °F 90.7 °F 72.0 °F 65% 30.04 in 10.0 mi East 16.1 mph 23.0 mph N/A   Scattered Clouds
4:04 PM 84.2 °F 89.6 °F 71.6 °F 66% 30.03 in 10.0 mi East 17.3 mph 27.6 mph N/A   Mostly Cloudy
4:28 PM 84.2 °F 89.6 °F 71.6 °F 66% 30.03 in 10.0 mi East 11.5 mph 24.2 mph N/A   Overcast
4:53 PM 82.9 °F 88.8 °F 73.0 °F 72% 30.03 in 8.0 mi East 15.0 mph 23.0 mph 0.00 in Rain Light Rain
5:53 PM 82.9 °F 86.5 °F 69.1 °F 63% 30.03 in 10.0 mi ESE 11.5 mph 21.9 mph 0.01 in   Clear
6:53 PM 82.9 °F 87.0 °F 70.0 °F 65% 30.04 in 10.0 mi East 9.2 mph 19.6 mph N/A   Partly Cloudy
7:53 PM 82.9 °F 87.5 °F 71.1 °F 67% 30.05 in 10.0 mi East 10.4 mph - N/A   Partly Cloudy
8:53 PM 82.9 °F 87.0 °F 70.0 °F 65% 30.06 in 10.0 mi East 9.2 mph - N/A   Scattered Clouds
9:53 PM 82.0 °F 85.9 °F 70.0 °F 67% 30.08 in 10.0 mi East 8.1 mph - N/A   Mostly Cloudy
10:53 PM 81.0 °F 84.4 °F 70.0 °F 69% 30.08 in 10.0 mi East 11.5 mph - 0.02 in   Scattered Clouds
11:20 PM 80.6 °F 84.6 °F 71.6 °F 74% 30.08 in 10.0 mi SSE 13.8 mph 20.7 mph N/A   Overcast
11:49 PM 78.8 °F - 71.6 °F 78% 30.09 in 4.0 mi ESE 8.1 mph 19.6 mph 0.04 in Rain Light Rain
11:53 PM 77.0 °F - 71.1 °F 82% 30.09 in 4.0 mi ESE 9.2 mph 16.1 mph 0.06 in Rain Rain